Weather in Grigor'yevka

Russia / Krasnoyarsk Krai     53°13′27″N   92°50′39″E
temp.,
°C
wind,
m/s
gust,
m/s
humid.,
%
clouds,
%
prec.,
mm/h
press.,
hPa
HPBL,
m
13 may, thu
thu1301:00+7wsw00741 0.0 101310
04:00+5wsw11800 0.0 101410
07:00+8wsw11680 0.0 1015161
10:00+14wnw23420 0.0 10151130
13:00+17nw23290 0.0 10132045
16:00+18n33270 0.0 10132114
19:00+15ne23457 0.0 101380
22:00+9sse1152100 0.0 101411
14 may, fri
fri1401:00+7se1162100 0.0 101411
04:00+5ese1166100 0.0 101411
07:00+8e1259100 0.0 101486
10:00+16ene11375 0.0 1013516
13:00+20wnw26315 0.0 10112152
16:00+16nnw785697 0.2 10111194
19:00+10wsw2490100 4.8 1017453
22:00+9w2486100 1.9 102173
15 may, sat
sat1501:00+6wnw118797 2.1 102318
04:00+6sw2287100 0.0 102366
07:00+8s127695 0.0 102499
10:00+13w394991 0.0 10231575
13:00+16w694099 0.0 10211818
16:00+15w31053100 0.1 10211622
19:00+11ssw1286100 1.1 1022109
22:00+10sse2294100 0.9 102269
16 may, sun
sun1601:00+10sse118972 0.9 102014
04:00+9s228983 0.0 101830
07:00+11ssw1186100 0.0 101718
10:00+11ene1287100 0.0 101859
13:00+12ese3688100 0.1 1017243
16:00+20wsw155091 0.0 1014927
19:00+18ene116694 0.1 101124
22:00+12w1196100 1.8 101319
17 may, mon
mon1701:00+12wsw2498100 2.5 1014201
04:00+11wsw1198100 0.3 101432
07:00+12w2493100 0.5 1016290
10:00+13w1289100 0.2 1016304
13:00+17wnw357394 1.5 1015895
16:00+18w51069100 2.2 10131273
19:00+18wsw51168100 2.7 1012801
22:00+15wsw41473100 0.0 1012564